Regional Weather Roundup
Issued by NWS

Home | Current Version | Previous Version | Text Only | Print | Product List | Glossary Off
Versions: 1 2 3 4 5 6 7 8 9 10 11 12 13 14 15 16 17 18 19 20 21 22 23 24 25 26 27 28 29 30 31 32 33 34 35 36 37 38 39 40 41 42 43 44 45 46 47 48 49 50

000
ASUS43 KMPX 272010
RWRMN
WEATHER ROUNDUP FOR MINNESOTA
NATIONAL WEATHER SERVICE TWIN CITIES/CHANHASSEN MN
300 PM CDT SUN JUL 27 2014


NOTE: "FAIR" INDICATES FEW OR NO CLOUDS BELOW 12,000 FEET WITH NO
SIGNIFICANT WEATHER AND/OR OBSTRUCTIONS TO VISIBILITY. N/A MEANS
CURRENT SKY AND/OR WEATHER CONDITIONS ARE NOT AVAILABLE.

MNZ060>063-068>070-272100-
   Twin Cities Metro

CITY           SKY/WX    TMP DP  RH WIND       PRES   REMARKS
TWIN CITIES    PTSUNNY   76  58  53 NW13      29.93R
ST PAUL        LGT RAIN  71  59  65 N16G36    29.93R
CRYSTAL        PTSUNNY   76  56  49 NW18G25   29.93R
BLAINE         PTSUNNY   72  63  73 N14       29.94R
LAKEVILLE      MOSUNNY   73  59  60 NW15      29.93S
EDEN PRAIRIE   MOSUNNY   76  59  55 N13G25    29.93R
SOUTH ST PAUL  PTSUNNY   76  55  48 N15       29.92S
LAKE ELMO      RAIN      68  61  77 NW10G18   29.95R
$$
MNZ001>005-007-008-013>017-022>024-027-028-272100-
   Northwest Minnesota

CITY           SKY/WX    TMP DP  RH WIND       PRES   REMARKS
BEMIDJI        CLOUDY    68  59  74 N9G17     30.07R
HALLOCK        SUNNY     66  57  72 N12       30.15R
ROSEAU         MOSUNNY   68  57  68 NE10      30.13R
WARROAD        CLOUDY    66  55  68 N9        30.13R
THIEF RVR FALL CLOUDY    64  55  72 N14       30.13R
CROOKSTON      CLOUDY    64  57  77 N13       30.15R
FOSSTON        CLOUDY    63  57  82 NW12      30.12R FOG
DETROIT LAKES  PTSUNNY   66  61  82 NW16G23   30.11R
MOORHEAD       PTSUNNY   66  61  82 NW16      30.13S
PARK RAPIDS    RAIN      66  60  81 N12       30.06R
$$
MNZ006-009>011-018-025>026-272100-
   North Central Minnesota

CITY           SKY/WX    TMP DP  RH WIND       PRES   REMARKS
BAUDETTE       PTSUNNY   67  53  61 NE10      30.11R
FLAG ISLAND    PTSUNNY   66  50  55 N14       30.11R
INTL FALLS     CLOUDY    69  54  58 NE8       30.06R
WASKISH        CLOUDY    64  57  77 N12       30.09R
BIG FORK       MOSUNNY   64  55  72 N9        30.07R
LONGVILLE      PTSUNNY   70  57  64 N10G18    30.04R
GRAND RAPIDS   CLOUDY    64  55  72 N14G21    30.03R
CRANE LAKE     PTSUNNY   64  54  68 N7        30.05S
ORR            CLOUDY    64  54  68 N3        30.03R
COOK           CLOUDY    64  55  72 N7        30.04R
$$
MNZ012-019>021-037-272100-
   Northeast Minnesota

CITY           SKY/WX    TMP DP  RH WIND       PRES   REMARKS
DULUTH         CLOUDY    60  55  83 E13       30.00R HAZE
ELY            PTSUNNY   64  54  68 N9        30.02R
HIBBING        CLOUDY    67  56  67 N9        30.02R
EVELETH        CLOUDY    64  55  72 N9G16     30.03R
DULUTH HARBOR  CLOUDY    57  54  88 N8        30.01R
TWO HARBORS    CLOUDY    61  54  77 E5        29.98R
SILVER BAY     SUNNY     63  57  82 N6        29.97R
GRAND MARAIS     N/A     72  54  53 VRB3      29.94R
G MARAIS ARPRT   N/A     63  48  59 NW10G23   29.99R
$$
MNZ029>031-032-039>041-046>048-054>057-064-272100-
   West Central Minnesota

CITY           SKY/WX    TMP DP  RH WIND       PRES   REMARKS
FERGUS FALLS   PTSUNNY   68  55  64 N15G25    30.10R
WHEATON        CLOUDY    64  55  72 NW14G21   30.14R
MORRIS         SUNNY     70  57  64 NW18G25   30.08S
ALEXANDRIA     CLOUDY    70  57  63 NW16      30.07R
ELBOW LAKE     PTSUNNY   67  58  74 NW20G26   30.09R
WADENA         MOSUNNY   70  59  68 NW12G17   30.05R
GLENWOOD       MOSUNNY   72  57  60 NW20G25   30.06R
APPLETON       CLOUDY    70  57  64 NW18G24   30.09R
BENSON         PTSUNNY   72  59  64 N18G30    30.07R
ORTONVILLE     CLOUDY    66  55  68 NW15G23   30.12R
MADISON        SUNNY     70  59  68 NW17G25   30.11R
WILLMAR        FAIR      73  57  56 NW22G32   30.05R
$$
MNZ033>034-036-042>043-049>051-058-059-272100-
   Central Minnesota

CITY           SKY/WX    TMP DP  RH WIND       PRES   REMARKS
ST CLOUD       PTSUNNY   77  57  50 N13G24    29.97R
SAUK CENTRE    CLOUDY    68  60  74 NW16      30.04R
PAYNESVILLE    CLOUDY    69  57  66 W17G26    30.03R
AITKIN         PTSUNNY   72  59  64 N14G23    29.99R
PINE RIVER     MOSUNNY   72  57  60 N14G20    30.05R
BRAINERD       MOSUNNY   74  56  53 N16G25    30.01R
STAPLES        MOSUNNY   73  55  53 N13       30.03R
LONG PRAIRIE   PTSUNNY   70  61  73 NW14      30.04R
LITTLE FALLS   LGT RAIN  68  59  73 N5        30.01R
LITCHFIELD     MOSUNNY   72  63  73 NW15G24   30.01R
BUFFALO        PTSUNNY   76  57  51 N10G22    29.97R
MAPLE LAKE     SUNNY     76  60  58 N13       29.99R
$$
MNZ037-044-045-052-053-272100-
   East Central Minnesota

CITY           SKY/WX    TMP DP  RH WIND       PRES   REMARKS
PRINCETON      MOSUNNY   77  59  53 NW16G22   29.96R
MORA           MOSUNNY   64  59  82 NE6       29.99R
CAMBRIDGE      RAIN      70  57  64 NW9G26    29.95R
RUSH CITY      CLOUDY    67  61  79 N8        29.96R
MOOSE LAKE     DRIZZLE   59  55  88 NE7       29.99R
HINCKLEY       CLOUDY    64  61  88 N9        29.97R
CLOQUET        DRIZZLE   59  55  88 E5        30.01R
MCGREGOR       PTSUNNY   64  59  82 N12G26    30.01R
$$
MNZ071>073-080-081-089-090-097-098-272100-
   Southwest Minnesota

CITY           SKY/WX    TMP DP  RH WIND       PRES   REMARKS
MONTEVIDEO     MOSUNNY   72  61  68 N22G29    30.08S
GRANITE FALLS  MOSUNNY   71  59  66 NW21G32   30.09R
CANBY          CLOUDY    69  56  61 NW16G24   30.13R
MARSHALL       CLOUDY    68  55  64 NW21G29   30.09R
REDWOOD FALLS  PTSUNNY   74  58  57 NW17G31   30.03R
OLIVIA         MOSUNNY   73  59  60 NW20G28   30.03R
PIPESTONE      CLOUDY    68  55  64 N21G30    30.13R
WINDOM         MOSUNNY   70  57  64 NW22G29   30.07S
WORTHINGTON    CLOUDY    66  55  68 NW17      30.12R
JACKSON        CLOUDY    66  55  68 NW18G26   30.08S
TRACY          CLOUDY    68  58  70 NW16G24   30.10R
SLAYTON        CLOUDY    67  56  65 NW18G25   30.12R
$$
MNZ065>067-074>077-082>085-091>093-272100-
   South Central Minnesota

CITY           SKY/WX    TMP DP  RH WIND       PRES   REMARKS
MANKATO        PTSUNNY   72  57  60 NW18      29.98R
NEW ULM        MOSUNNY   72  59  64 NW22G28   30.00R
ST JAMES       PTSUNNY   72  57  60 W17G24    30.03R
FAIRMONT       PTSUNNY   72  55  56 NW20G28   30.03R
GLENCOE        PTSUNNY   74  57  54 NW17G23   29.97S
FARIBAULT      PTSUNNY   77  54  44 NW12G18   29.95S
OWATONNA       MOSUNNY   75  57  53 NW22G28   29.95S
WASECA         CLOUDY    70  55  60 NW15G24   29.99R
ALBERT LEA     LGT RAIN  66  61  82 NW8G18    29.98R
$$
MNZ078>079-086>088-094>096-272100-
   Southeast Minnesota

CITY           SKY/WX    TMP DP  RH WIND       PRES   REMARKS
ROCHESTER      CLOUDY    70  58  65 NW14G21   29.94R
RED WING       PTSUNNY   77  57  50 NW18G25   29.90R
STANTON        MOSUNNY   75  56  52 NW18      29.92S
DODGE CENTER   MOSUNNY   73  59  60 NW24G30   29.94R
WINONA         PTSUNNY   75  59  57 NW18G25   29.87S
AUSTIN         PTSUNNY   72  57  60 NW18G26   29.94S
PRESTON        PTSUNNY   69  62  76 N21G26    29.92S
$$
ABBREVIATIONS USED IN REMARKS
   TC - TEMPERATURES IN CELSIUS
  WCI - WIND CHILL INDEX
   HX - HEAT INDEX
  VSB - VISIBILITY
$$



USA.gov is the U.S. government's official web portal to all federal, state and local government web resources and services.